Погода в Истре

Франция     43°30′55″N   4°58′58″E
темп.,
°C
ветер,
м/с
пор.,
м/с
влажн.,
%
обл.,
%
осадки,
мм/ч
давл.,
гПа
погр.,
м
25 января, пн
пн2501:00+9з7148074 1.4 10061294
04:00+10з71175100 0.4 1005612
07:00+8сз5978100 0.4 1005401
10:00+8ссз5959100 0.0 1007568
13:00+9ссз7104698 0.0 10071278
16:00+9ссз7114232 0.0 10071839
19:00+7ссз7124817 0.0 10101300
22:00+5ссз1217550 0.0 10131045
26 января, вт
вт2601:00+4ссз1218610 0.0 1015868
04:00+3ссз1319650 0.0 1017891
07:00+3ссз1218620 0.0 1019853
10:00+4ссз1217570 0.0 1021789
13:00+7ссз1317460 0.0 1021863
16:00+7ссз13184253 0.0 1019946
19:00+6ссз12184964 0.0 1021842
22:00+5ссз111757100 0.0 1023691
27 января, ср
ср2701:00+4ссз8146097 0.0 1023574
04:00+3с511590 0.0 1021447
07:00+3ссз613550 0.0 1021397
10:00+6ссз9163935 0.0 1021539
13:00+10ссз8143521 0.0 1020560
16:00+11сз7124041 0.0 1019573
19:00+9сз7125051 0.0 1020372
22:00+8ссз6135634 0.0 1020307
28 января, чт
чт2801:00+7сз486550 0.0 1020255
04:00+7ссз357174 0.0 1019145
07:00+7ссз347486 0.0 1018131
10:00+8ссз2476100 0.0 1019152
13:00+13зсз41274100 0.0 1018607
16:00+15ссз2572100 0.0 1017221
19:00+12ссз347698 0.0 101988
22:00+11сз368051 0.0 1020154
29 января, пт
пт2901:00+10сз478152 0.0 1020193
04:00+10сз238392 0.0 101874
07:00+10ссз128296 0.0 101741
10:00+11зсз2280100 0.0 101667
13:00+13всв2271100 0.0 1015128
16:00+14ссв1169100 0.0 101383
19:00+13зюз1280100 0.0 101139
22:00+12сз3481100 0.1 1011103